Location: Montague
(41.3030°N, 74.7940°W)
Time: 21:47:04
(UTC-04:00)

Daily predictions for brighter satellites

Satellite Brightness Start Highest point End
(mag) Time Altitude Azimuth Time Altitude Azimuth Time Altitude Azimuth
Cosmos 1818 3.7 21:03:05 10° NNW 21:08:33 69° NE 21:13:56 10° SE
ATLAS 5 CENTAUR R/B 1.7 21:06:33 10° SSW 21:11:09 79° SE 21:16:12 10° NE
Cosmos 1726 4.0 21:12:26 10° NNE 21:14:44 16° ENE 21:17:00 10° ESE
RESURS DK-1 3.9 21:13:50 10° N 21:17:14 23° NE 21:20:36 10° ESE
Cosmos 1076 Rocket 3.9 21:15:03 10° SSE 21:19:13 46° E 21:23:24 10° NNE
Spot 1 4.0 21:16:17 10° SSE 21:20:21 83° WSW 21:24:37 10° NNW
Cosmos 1802 Rocket 4.4 21:14:57 10° N 21:20:47 44° ENE 21:26:36 10° SSE
Cosmos 1727 Rocket 4.3 21:15:12 10° S 21:21:31 78° W 21:27:54 10° N
Cosmos 1408 Rocket 4.4 21:18:52 10° SSE 21:22:37 30° E 21:26:26 10° NNE
Cosmos 2237 Rocket 3.8 21:22:25 10° NW 21:27:20 32° WSW 21:32:13 10° SSW
ERBS 4.4 21:27:12 10° NNW 21:29:47 20° NNE 21:32:23 10° E
Cosmos 1939 Rocket 3.7 21:26:52 10° S 21:30:45 50° W 21:34:44 10° NNW
Cosmos 1340 Rocket 3.7 21:29:03 10° SSW 21:32:58 52° WNW 21:36:58 10° N
Cosmos 2221 2.6 21:28:52 10° N 21:33:16 85° W 21:37:39 10° S
CZ-4B DEB 3.3 21:31:46 10° S 21:34:39 51° W 21:37:35 10° NNW
Cosmos 1603 4.3 21:30:20 10° NNW 21:35:46 45° ENE 21:40:30 13° SE
Envisat 4.2 21:31:08 10° SSW 21:35:55 41° W 21:40:44 10° NNW
Meteor 1-29 3.6 21:35:06 10° N 21:38:30 59° WNW 21:41:53 10° SSW
Tiangong 1 1.2 21:36:13 10° W 21:39:01 61° N 21:41:46 10° E
Cosmos 371 Rocket 4.3 21:39:21 10° N 21:43:41 32° ENE 21:47:08 14° ESE
Cosmos 1674 2.7 21:40:07 10° S 21:43:53 85° W 21:47:39 10° N
Cosmos 2208 Rocket 4.2 21:38:55 10° NNW 21:44:16 79° WSW 21:49:33 10° SSE
MetOp-A 4.2 21:40:22 11° SSE 21:45:34 72° ENE 21:50:55 10° N
Cosmos 2016 Rocket 4.1 21:41:16 10° N 21:47:28 60° E 21:52:56 13° SSE
ARGOS 3.4 21:42:43 13° SSE 21:47:31 58° ENE 21:52:49 10° N
Okean 3 Rocket 4.2 21:43:23 10° SSW 21:47:50 60° W 21:52:16 10° N
CZ-3B R/B 3.9 21:46:52 10° SW 21:49:49 77° SE 21:59:49 10° NE
Cosmos 1943 4.3 21:45:48 10° N 21:50:48 31° ENE 21:54:57 14° ESE
SPOT 5 3.2 21:47:02 15° SE 21:50:58 55° ENE 21:55:58 10° N
Lacrosse 5 2.2 21:46:18 10° NW 21:51:19 61° NE 21:55:19 16° ESE
GPS 2-05 Rocket1 4.5 21:50:03 10° SSW 21:51:24 15° S 21:51:24 15° S
Cosmos 1763 Rocket 4.4 21:47:26 10° N 21:52:02 33° ENE 21:55:27 16° ESE
Cosmos 1908 3.6 21:48:37 10° NNW 21:52:29 65° W 21:56:17 10° S
SL-16 R/B 3.0 21:47:04 10° NW 21:52:29 48° WSW 21:57:52 10° S
SPOT 1/Viking Rocket 4.0 21:54:30 17° SE 21:58:15 48° ENE 22:03:12 10° N
Cosmos 1766 Rocket 3.5 21:55:34 10° S 21:59:53 87° ESE 22:04:15 10° N
KORONAS-FOTON 3.8 21:57:18 10° S 22:01:05 80° W 22:04:54 10° N
Abrixas rocket 3.2 22:00:35 10° NW 22:03:42 41° NNE 22:06:04 15° E
Cosmos 1242 Rocket 3.5 22:00:18 10° NNW 22:03:53 47° W 22:07:16 11° S
Cosmos 1328 Rocket 3.8 22:01:08 10° N 22:05:22 50° E 22:07:53 22° SE
USA 245 3.1 22:07:27 23° SSE 22:09:32 85° ENE 22:13:45 10° NNW
Cosmos 1515 Rocket 4.1 22:07:09 10° N 22:11:17 41° ENE 22:13:24 24° SE
Landsat 7 4.5 22:08:35 21° SE 22:11:20 41° ENE 22:15:48 10° N
YAOGAN 11 4.1 22:08:20 19° SSE 22:11:37 90° N 22:16:11 10° NNW
Cosmos 1151 Rocket 4.0 22:07:48 10° NNE 22:11:47 33° ENE 22:13:43 23° ESE
H-2A R/B 3.6 22:13:53 17° ESE 22:15:47 23° ENE 22:19:08 10° NNE
Cosmos 1743 Rocket 3.6 22:13:15 21° SSE 22:16:00 57° E 22:20:15 10° NNE
USA 234 3.2 22:09:40 10° NE 22:16:12 69° SE 22:22:42 10° SW
Cosmos 2228 Rocket 3.2 22:14:56 10° N 22:19:31 68° E 22:22:04 25° SSE
Cosmos 468 Rocket 4.1 22:17:36 10° NNW 22:22:43 73° WSW 22:26:04 22° S
Cosmos 1703 4.4 22:22:24 25° ESE 22:23:13 27° E 22:26:37 10° NNE
SL-08 RB Rocket 3.8 22:21:53 21° S 22:24:54 77° WSW 22:29:32 10° NNW
Terra 2.5 22:24:00 25° ESE 22:26:16 41° ENE 22:30:44 10° N
ERS-1 Rocket 4.2 22:22:00 10° SSW 22:26:37 37° W 22:31:17 10° NNW
Meteor 1-11 4.5 22:23:46 21° SSE 22:27:31 55° E 22:33:11 10° NNE
Nimbus 7 Rocket 4.4 22:25:48 10° NNE 22:31:52 86° ESE 22:37:30 12° SSW
H-2A ROCKET BODY 3.8 22:28:36 10° SSW 22:32:41 26° SE 22:44:14 10° E
Cosmos 332 Rocket 4.0 22:29:25 10° NNW 22:34:18 67° WSW 22:37:02 26° S
Cosmos 2123 Rocket 4.2 22:36:04 10° SSW 22:42:07 70° W 22:48:20 10° N
H-2A R/B 2.3 22:39:05 24° S 22:42:22 71° WSW 22:47:48 10° NNW
Meteor 1-27 4.3 22:37:02 10° N 22:42:52 70° E 22:45:45 30° SSE
Meteor 2-10 4.4 22:37:22 10° NNW 22:42:58 73° W 22:46:32 24° S
Cosmos 220 Rocket 4.5 22:39:27 10° SSW 22:43:49 62° WNW 22:48:10 10° NNE
Cosmos 1626 2.3 22:44:38 45° SE 22:45:13 51° E 22:48:51 10° NNE
Cosmos 2058 2.9 22:44:53 39° SSE 22:46:19 67° E 22:50:31 10° NNE
Cosmos 1726 3.7 22:46:52 10° NNW 22:50:07 30° W 22:52:04 18° SW
CZ-4B R/B 4.3 22:45:33 10° NNE 22:50:21 35° E 22:51:29 31° ESE
Cosmos 2263 Rocket 2.1 22:46:58 20° SSW 22:50:54 74° ESE 22:56:30 10° NNE
Cosmos 540 Rocket 4.2 22:46:45 10° N 22:51:38 41° ENE 22:53:35 29° ESE
Cosmos 1300 3.9 22:50:18 10° NNW 22:53:51 37° W 22:55:37 23° SW
RESURS DK-1 3.7 22:51:37 10° NW 22:55:18 31° WSW 22:56:54 23° SSW
Cosmos 2285 Rocket 4.2 22:52:29 10° NNW 22:58:47 60° ENE 23:01:42 32° SE
Sich 1 4.3 22:59:54 24° E 22:59:54 24° E 23:03:22 10° NE
ERBS 2.9 23:03:22 10° NW 23:06:28 46° WSW 23:06:28 46° WSW
deb Chang Zheng 4 3.5 23:04:11 10° NNE 23:08:33 69° ESE 23:09:31 51° SSE
PSLV R/B 3.8 23:09:22 44° NNE 23:09:22 44° NNE 23:11:36 10° N
Cosmos 1356 4.4 23:11:37 33° WSW 23:12:39 43° WNW 23:16:01 10° N
Cosmos 2151 3.7 23:11:00 27° SW 23:13:00 51° W 23:17:14 10° N
Cosmos 1707 Rocket 4.2 23:08:59 10° N 23:13:15 42° ENE 23:13:54 39° E
Tiangong 1 2.5 23:11:53 10° WNW 23:13:23 28° WNW 23:13:23 28° WNW
Cosmos 1354 Rocket 4.0 23:16:06 32° SSW 23:18:37 85° WNW 23:23:53 10° NNE
Cosmos 1844 Rocket 3.6 23:24:43 29° ESE 23:24:44 29° ESE 23:29:29 10° NE
Cosmos 1455 2.1 23:23:29 10° NNW 23:27:21 74° W 23:27:33 72° SW
CZ-4C R/B 2.5 23:28:14 42° ESE 23:28:23 42° ESE 23:33:47 10° NE
Cosmos 1666 Rocket 3.8 23:28:28 52° ESE 23:28:42 53° E 23:33:03 10° NNE
CARTOSAT-1 4.5 23:29:27 34° SW 23:30:30 40° W 23:34:34 10° NNW
Cosmos 1464 Rocket 3.9 23:24:29 10° N 23:30:40 74° E 23:32:45 44° SSE
Cosmos 841 Rocket 4.4 23:27:23 10° NW 23:32:14 39° WSW 23:33:53 31° SW
Lacrosse 5 3.3 23:30:00 10° WNW 23:33:55 23° WSW 23:34:30 22° SW
Cosmos 1943 4.1 23:29:41 10° NW 23:34:54 39° WSW 23:36:46 30° SW
Cosmos 1869 3.3 23:34:05 10° N 23:37:55 69° ENE 23:37:55 69° ENE
Cosmos 1805 Rocket 3.5 23:39:13 62° SW 23:39:50 75° W 23:44:11 10° N
Abrixas rocket 4.4 23:37:25 10° WNW 23:38:41 19° W 23:38:41 19° W
Cosmos 1633 Rocket 3.0 23:44:55 66° E 23:44:55 66° E 23:49:15 10° NNE
CZ-4C R/B 3.4 23:46:43 75° SSW 23:46:59 79° WSW 23:51:24 10° NNW
Cosmos 967 Rocket 4.4 23:41:42 10° NNW 23:48:06 85° ENE 23:50:08 47° SE
Cosmos 783 Rocket 4.4 23:43:13 10° NNW 23:48:33 81° ENE 23:49:34 59° SE
Cosmos 1400 Rocket 3.9 23:49:33 35° ENE 23:49:33 35° ENE 23:52:47 10° NNE
H-2A R/B 3.3 23:51:01 30° WSW 23:51:38 31° W 23:55:26 10° NW
SME Rocket 3.0 23:52:50 69° WSW 23:52:55 69° WSW 23:57:26 10° NNW
